Rush City, MN

8:49 AM CST on December 15, 2017 (GMT -0600)
Rush City Regional

Weather History for KROS - November, 2012

Change the Weather History Date:

Thursday, November 8, 2012

  Actual Average (KCBG) Record (KCBG)
Temperature  
Mean Temperature 42 °F -  
Max Temperature 51 °F 42 °F 71 °F (1999)
Min Temperature 33 °F 26 °F 1 °F (1991)
Degree Days  
Heating Degree Days 23    
Moisture  
Dew Point 33 °F    
Average Humidity 77    
Maximum Humidity 92    
Minimum Humidity 54    
Precipitation  
Precipitation 0.00 in - - ()
Sea Level Pressure  
Sea Level Pressure 29.98 in    
Wind  
Wind Speed 7 mph (South)    
Max Wind Speed 15 mph    
Max Gust Speed 20 mph    
Visibility 10 miles    
Events      
Averages and records for this station are not official NWS values.
T = Trace of Precipitation, MM = Missing Value Source: NWS Daily Summary

Daily Weather History Graph

Daily Weather History Graph

Search for Another Location

Airport or City:

Trip Planner

Search our weather history database for the weather conditions in past years. The results will help you decide how hot, cold, wet, or windy it might be!

Date:

Astronomy

Nov. 08, 2012 Rise Set
Actual Time 7:02 AM CST 4:48 PM CST
Civil Twilight 6:30 AM CST 5:19 PM CST
Nautical Twilight 5:55 AM CST 5:55 PM CST
Astronomical Twilight 5:20 AM CST 6:30 PM CST
Moon 12:40 AM CST (11/8) 1:45 PM CST (11/8)
Length of Visible Light 10h 49m
Length of Day
9h 45m
Waning Crescent, 32% of the Moon is Illuminated
Nov 8
Waning Crescent
Nov 13
New
Nov 20
First Quarter
Nov 28
Full
Dec 6
Last Quarter

Hourly Weather History & Observations

Time (CST) Temp. Windchill Dew Point Humidity Pressure Visibility Wind Dir Wind Speed Gust Speed Precip Events Conditions
12:15 AM 36.7 °F 32.9 °F 32.9 °F 86% 30.04 in 10.0 mi SSE 4.6 mph - N/A   Mostly Cloudy
12:34 AM 35.8 °F 30.9 °F 32.2 °F 87% 30.04 in 10.0 mi South 5.8 mph - N/A   Scattered Clouds
12:55 AM 35.8 °F 30.1 °F 32.2 °F 87% 30.03 in 10.0 mi South 6.9 mph - N/A   Clear
1:14 AM 36.0 °F 31.1 °F 32.2 °F 86% 30.03 in 10.0 mi South 5.8 mph - N/A   Scattered Clouds
1:35 AM 36.9 °F 31.4 °F 32.5 °F 84% 30.03 in 10.0 mi South 6.9 mph - N/A   Mostly Cloudy
1:54 AM 36.9 °F 31.4 °F 32.2 °F 83% 30.03 in 10.0 mi South 6.9 mph - N/A   Overcast
2:14 AM 36.5 °F 31.0 °F 32.0 °F 84% 30.03 in 10.0 mi South 6.9 mph - N/A   Scattered Clouds
2:34 AM 36.0 °F 29.6 °F 31.8 °F 85% 30.02 in 10.0 mi South 8.1 mph - N/A   Scattered Clouds
2:54 AM 36.0 °F 30.3 °F 31.6 °F 84% 30.02 in 10.0 mi SSE 6.9 mph - N/A   Mostly Cloudy
3:14 AM 35.2 °F 28.8 °F 31.1 °F 85% 30.00 in 10.0 mi SSE 8.1 mph - N/A   Scattered Clouds
3:34 AM 34.9 °F 28.3 °F 31.1 °F 86% 30.00 in 10.0 mi SSE 8.1 mph - N/A   Clear
3:55 AM 34.5 °F 27.9 °F 30.6 °F 85% 30.00 in 10.0 mi SSE 8.1 mph - N/A   Clear
4:14 AM 34.3 °F 28.4 °F 30.6 °F 86% 29.99 in 10.0 mi SSE 6.9 mph - N/A   Clear
4:34 AM 33.8 °F 26.4 °F 30.2 °F 87% 29.98 in 10.0 mi SSE 9.2 mph - N/A   Clear
4:55 AM 34.0 °F 26.6 °F 30.2 °F 86% 29.97 in 10.0 mi SSE 9.2 mph - N/A   Clear
5:14 AM 33.8 °F 27.7 °F 30.2 °F 87% 29.97 in 10.0 mi SSE 6.9 mph - N/A   Clear
5:34 AM 34.0 °F 28.8 °F 30.4 °F 87% 29.96 in 10.0 mi SSE 5.8 mph - N/A   Clear
5:55 AM 34.5 °F 27.3 °F 30.7 °F 86% 29.96 in 10.0 mi SSE 9.2 mph - N/A   Clear
6:14 AM 34.7 °F 28.8 °F 30.7 °F 85% 29.96 in 10.0 mi SSE 6.9 mph - N/A   Clear
6:55 AM 34.7 °F 28.1 °F 30.9 °F 86% 29.95 in 10.0 mi SSE 8.1 mph - N/A   Clear
7:14 AM 35.1 °F 28.6 °F 30.9 °F 85% 29.95 in 10.0 mi SSE 8.1 mph - N/A   Clear
7:34 AM 35.1 °F 28.6 °F 31.1 °F 85% 29.95 in 10.0 mi SSE 8.1 mph - N/A   Clear
7:55 AM 35.2 °F 28.1 °F 31.1 °F 85% 29.95 in 10.0 mi SSE 9.2 mph - N/A   Clear
8:14 AM 36.5 °F 29.7 °F 32.0 °F 84% 29.95 in 10.0 mi South 9.2 mph - N/A   Clear
8:34 AM 37.9 °F 30.0 °F 32.0 °F 79% 29.94 in 10.0 mi South 12.7 mph 17.3 mph N/A   Clear
8:55 AM 39.9 °F 31.8 °F 32.5 °F 75% 29.94 in 10.0 mi South 15.0 mph 19.6 mph N/A   Clear
9:14 AM 40.8 °F 34.5 °F 32.5 °F 72% 29.95 in 10.0 mi South 10.4 mph 16.1 mph N/A   Clear
9:34 AM 42.4 °F 36.5 °F 33.1 °F 69% 29.95 in 10.0 mi South 10.4 mph - N/A   Clear
9:55 AM 42.3 °F 36.8 °F 32.9 °F 69% 29.95 in 10.0 mi South 9.2 mph 17.3 mph N/A   Clear
10:14 AM 42.8 °F 37.5 °F 33.1 °F 69% 29.94 in 10.0 mi South 9.2 mph - N/A   Clear
10:34 AM 44.4 °F 38.2 °F 33.4 °F 65% 29.94 in 10.0 mi South 12.7 mph - N/A   Clear
10:55 AM 47.1 °F - 34.2 °F 61% 29.94 in 10.0 mi South 12.7 mph - N/A   Clear
11:14 AM 47.8 °F - 33.6 °F 58% 29.94 in 10.0 mi SSW 13.8 mph 17.3 mph N/A   Clear
11:34 AM 46.9 °F - 33.1 °F 59% 29.93 in 10.0 mi SSW 10.4 mph 18.4 mph N/A   Clear
11:55 AM 47.1 °F - 33.8 °F 60% 29.93 in 10.0 mi SSW 10.4 mph 16.1 mph N/A   Scattered Clouds
12:14 PM 48.4 °F - 34.0 °F 58% 29.92 in 10.0 mi SSW 9.2 mph - N/A   Clear
12:34 PM 49.1 °F - 34.0 °F 56% 29.91 in 10.0 mi South 11.5 mph - N/A   Scattered Clouds
12:55 PM 49.6 °F - 34.3 °F 56% 29.91 in 10.0 mi WSW 9.2 mph - N/A   Clear
1:14 PM 50.0 °F - 34.5 °F 55% 29.91 in 10.0 mi SSW 8.1 mph - N/A   Clear
1:34 PM 48.6 °F - 34.3 °F 58% 29.91 in 10.0 mi SSW 9.2 mph - N/A   Clear
1:55 PM 50.0 °F - 34.7 °F 56% 29.92 in 10.0 mi SW 8.1 mph - N/A   Clear
2:14 PM 49.1 °F - 34.5 °F 57% 29.92 in 10.0 mi West 5.8 mph - N/A   Clear
2:34 PM 50.9 °F - 34.9 °F 54% 29.92 in 10.0 mi West 3.5 mph - N/A   Clear
2:55 PM 51.1 °F - 34.9 °F 54% 29.93 in 10.0 mi West 6.9 mph - N/A   Clear
3:14 PM 49.5 °F - 34.9 °F 57% 29.94 in 10.0 mi West 3.5 mph - N/A   Clear
3:34 PM 49.1 °F - 34.9 °F 58% 29.94 in 10.0 mi West 3.5 mph - N/A   Clear
3:55 PM 47.5 °F - 34.7 °F 61% 29.95 in 10.0 mi Calm Calm - N/A   Clear
4:14 PM 48.6 °F - 35.2 °F 60% 29.95 in 10.0 mi Calm Calm - N/A   Clear
4:34 PM 47.8 °F - 35.2 °F 62% 29.96 in 10.0 mi Calm Calm - N/A   Clear
4:55 PM 45.7 °F - 34.5 °F 65% 29.96 in 10.0 mi Calm Calm - N/A   Clear
5:14 PM 42.4 °F - 33.8 °F 71% 29.96 in 10.0 mi Calm Calm - N/A   Scattered Clouds
5:34 PM 40.1 °F - 33.1 °F 76% 29.98 in 10.0 mi Calm Calm - N/A   Scattered Clouds
5:55 PM 37.8 °F - 32.0 °F 80% 29.98 in 10.0 mi Calm Calm - N/A   Scattered Clouds
6:14 PM 37.6 °F - 32.4 °F 81% 29.98 in 10.0 mi Calm Calm - N/A   Scattered Clouds
6:34 PM 37.4 °F - 32.9 °F 84% 29.99 in 10.0 mi Calm Calm - N/A   Scattered Clouds
6:55 PM 37.2 °F - 32.2 °F 82% 29.99 in 10.0 mi Calm Calm - N/A   Scattered Clouds
7:14 PM 35.4 °F - 32.0 °F 87% 29.99 in 10.0 mi Calm Calm - N/A   Scattered Clouds
7:34 PM 35.6 °F - 32.2 °F 87% 30.00 in 10.0 mi Calm Calm - N/A   Scattered Clouds
7:55 PM 35.1 °F 31.0 °F 32.0 °F 89% 30.00 in 10.0 mi North 4.6 mph - N/A   Scattered Clouds
8:14 PM 39.6 °F 33.5 °F 33.8 °F 80% 30.01 in 10.0 mi North 9.2 mph - N/A   Scattered Clouds
8:34 PM 38.3 °F 32.5 °F 33.4 °F 83% 30.01 in 10.0 mi North 8.1 mph - N/A   Scattered Clouds
8:55 PM 37.9 °F 32.1 °F 33.8 °F 85% 30.02 in 10.0 mi North 8.1 mph - N/A   Scattered Clouds
9:14 PM 37.8 °F 32.5 °F 33.8 °F 86% 30.01 in 10.0 mi North 6.9 mph - N/A   Scattered Clouds
9:34 PM 37.4 °F 32.8 °F 33.8 °F 87% 30.02 in 10.0 mi North 5.8 mph - N/A   Scattered Clouds
9:55 PM 36.5 °F 31.8 °F 33.1 °F 87% 30.03 in 10.0 mi North 5.8 mph - N/A   Scattered Clouds
10:14 PM 35.6 °F 31.7 °F 32.5 °F 89% 30.02 in 10.0 mi NNE 4.6 mph - N/A   Scattered Clouds
10:34 PM 35.6 °F 31.7 °F 32.9 °F 90% 30.03 in 10.0 mi North 4.6 mph - N/A   Scattered Clouds
10:54 PM 34.9 °F 30.8 °F 32.4 °F 91% 30.03 in 10.0 mi North 4.6 mph - N/A   Scattered Clouds
11:14 PM 34.9 °F 30.8 °F 32.9 °F 92% 30.04 in 10.0 mi North 4.6 mph - N/A   Scattered Clouds
11:35 PM 34.2 °F 31.2 °F 32.0 °F 92% 30.04 in 10.0 mi NNE 3.5 mph - N/A   Scattered Clouds
11:54 PM 34.0 °F 31.0 °F 32.0 °F 92% 30.04 in 10.0 mi NNE 3.5 mph - N/A   Scattered Clouds